Regional Weather Roundup
Issued by NWS Little Rock, AR

Home | Current Version | Previous Version | Graphics & Text | Print | Product List | Glossary On
Versions: 1 2 3 4 5 6 7 8 9 10 11 12 13 14 15 16 17 18 19 20 21 22 23 24 25 26 27 28 29 30 31 32 33 34 35 36 37 38 39 40 41 42 43 44 45 46 47 48 49
000
ASUS44 KLZK 202205
RWRLZK

WEATHER ROUNDUP FOR ARKANSAS
NATIONAL WEATHER SERVICE LITTLE ROCK AR
500 PM CDT SAT SEP 20 2014

NOTE: "FAIR" INDICATES FEW OR NO CLOUDS BELOW 12,000 FEET WITH NO
SIGNIFICANT WEATHER AND/OR OBSTRUCTIONS TO VISIBILITY.

ARZ001-003-010-029-202300-
NORTHWEST ARKANSAS

CITY           SKY/WX    TMP DP  RH WIND       PRES   REMARKS
FAYETTEVILLE   SUNNY     82  65  56 SW8       30.02F
FORT SMITH     PTSUNNY   87  64  46 CALM      29.98S HX  88
HARRISON       MOSUNNY   84  68  58 SW6       30.00F HX  87
BENTONVILLE    MOSUNNY   84  66  54 SW10G21   30.01F HX  86
ROGERS         SUNNY     83  67  58 S10       30.01F HX  85
SILOAM SPGS    SUNNY     84  64  51 SW9       30.02F HX  86
HIGHFILL       SUNNY     82  68  62 SW9       30.00F HX  85
SPRINGDALE     MOSUNNY   84  66  54 SW12      30.03F HX  86
$$

ARZ004-005-016-202300-
NORTH CENTRAL ARKANSAS

CITY           SKY/WX    TMP DP  RH WIND       PRES   REMARKS
BATESVILLE     PTSUNNY   88  64  45 W3        29.97S HX  89
FLIPPIN        MOSUNNY   86  64  48 SW7       29.98F HX  87
MTN HOME       MOSUNNY   86  66  51 VRB7      29.97F HX  88
$$

ARZ040-041-202300-
WEST CENTRAL ARKANSAS

CITY           SKY/WX    TMP DP  RH WIND       PRES   REMARKS
MENA           MOSUNNY   88  66  48 CALM      30.01F HX  90
MOUNT IDA      MOSUNNY   88  65  46 CALM      29.98F HX  90
$$

ARZ009-017-025-026-028-202300-
NORTHEAST ARKANSAS

CITY           SKY/WX    TMP DP  RH WIND       PRES   REMARKS
CORNING        LGT RAIN  86  70  58 SW6       29.97R HX  90
JONESBORO      PTSUNNY   90  64  42 VRB5      29.96F HX  91
NEWPORT        MOSUNNY   89  65  44 S5        29.97F HX  90
WALNUT RIDGE   PTSUNNY   88  64  45 W3        29.95S HX  89
BLYTHEVILLE    PTSUNNY   89  70  53 S5        29.97F HX  94
$$

ARZ022-023-033-042-044-202300-
CENTRAL ARKANSAS

CITY           SKY/WX    TMP DP  RH WIND       PRES   REMARKS
LITTLE ROCK    PTSUNNY   88  63  43 SE3       29.97F HX  89
N LITTLE ROCK  PTSUNNY   87  68  53 S3        29.97F HX  90
JACKSONVILLE   CLOUDY    87  67  50 CALM      29.97F HX  90
SEARCY         PTSUNNY   88  67  49 S6        29.97F HX  91
HOT SPRINGS    MOSUNNY   87  66  49 S5        29.99F HX  89
RUSSELLVILLE   MOSUNNY   88  66  48 W5        29.98F HX  90
CLINTON        FAIR      88  70  55 SW3       29.99S HX  92
$$

ARZ036-202300-
EAST ARKANSAS

CITY           SKY/WX    TMP DP  RH WIND       PRES   REMARKS
WEST MEMPHIS   MOSUNNY   89  67  47 S10       29.95F HX  92
$$

ARZ050-053-066-070-073-202300-
SOUTHWEST ARKANSAS

CITY           SKY/WX    TMP DP  RH WIND       PRES   REMARKS
ARKADELPHIA    FAIR      89  67  48 CALM      29.97F HX  92
CAMDEN         SUNNY     91  64  40 NW5       29.96F HX  93
TEXARKANA      SUNNY     87  67  51 E3        29.97F HX  90
EL DORADO      MOSUNNY   90  66  45 NE6       29.97F HX  92
DE QUEEN       SUNNY     88  68  51 CALM      29.95F HX  91
$$

ARZ056-057-069-202300-
SOUTHEAST ARKANSAS

CITY           SKY/WX    TMP DP  RH WIND       PRES   REMARKS
PINE BLUFF     MOSUNNY   91  63  39 CALM      29.97F HX  92
STUTTGART      PTSUNNY   90  64  43 CALM      29.98F HX  91
MONTICELLO     MOSUNNY   92  63  38 NE5       29.96F HX  93

$$




USA.gov is the U.S. government's official web portal to all federal, state and local government web resources and services.